Regional Weather Roundup
Issued by NWS

Home | Current Version | Previous Version | Graphics & Text | Print | Product List | Glossary On
Versions: 1 2 3 4 5 6 7 8 9 10 11 12 13 14 15 16 17 18 19 20 21 22 23 24 25 26 27 28 29 30 31 32 33 34 35 36 37 38 39 40 41 42 43 44 45 46 47 48 49 50
000
ASUS45 KCYS 170810
RWRWY

WYOMING REGIONAL WEATHER ROUNDUP
NATIONAL WEATHER SERVICE CHEYENNE WY
200 AM MDT TUE OCT 17 2017

NOTE:  "FAIR" INDICATES FEW OR NO CLOUDS BELOW 12,000 FEET
WITH NO SIGNIFICANT WEATHER AND/OR OBSTRUCTIONS TO VISIBILITY.

WYZ001-170900-
YELLOWSTONE NATIONAL PARK

CITY           SKY/WX    TMP DP  RH WIND       PRES   REMARKS
LK YELLOWSTONE   N/A     23  19  85 CALM      30.40S
W YELLOWSTONE  NOT AVBL

$$
WYZ002>013-054>058-071-098>099-170900-
NORTHERN WYOMING

CITY           SKY/WX    TMP DP  RH WIND       PRES   REMARKS
JACKSON        NOT AVBL
CODY           FAIR      57  16  20 SW13G22   30.19F
GREYBULL       FAIR      37  27  67 SE5       30.18R WCI  33
WORLAND        FAIR      36  31  82 S6        30.18S WCI  31
SHERIDAN       FAIR      42  24  49 SW5       30.10S
BUFFALO        FAIR      53  13  20 W12       30.15F
GILLETTE       FAIR      48  23  37 S6        30.13F
HULETT         FAIR      43  27  52 SW8       30.13S
NEWCASTLE      FAIR      39  27  60 N9        30.16S WCI  33

$$
WYZ014>020-022>026-101>103-170900-
CENTRAL WYOMING

CITY           SKY/WX    TMP DP  RH WIND       PRES   REMARKS
BIG PINEY      FAIR      25  13  60 CALM      30.39R
PINEDALE       FAIR      21  16  79 NW7       30.40S WCI  13
DUBOIS         FAIR      34  18  51 NW16      30.32F WCI  23
LANDER         NOT AVBL
RIVERTON       FAIR      42  22  44 SW13      30.24R
CASPER         FAIR      36  18  48 W8        30.22S WCI  30
DOUGLAS        FAIR      32  21  64 CALM      30.21S

$$
WYZ021-027>030-104>119-170900-
SOUTHERN WYOMING

CITY           SKY/WX    TMP DP  RH WIND       PRES   REMARKS
EVANSTON       FAIR      42   6  22 S7        30.41S
KEMMERER       FAIR      36  10  35 NW5       30.41S WCI  32
FORT BRIDGER   FAIR      48   0  13 SW10      30.43R
ROCK SPRINGS   FAIR      44   2  17 W15       30.37S
DIXON          FAIR      26  13  59 CALM      30.42S
RAWLINS        FAIR      46   8  21 SW18      30.33S
SARATOGA       FAIR      28  14  54 E7        30.37S WCI  21
LARAMIE        FAIR      33   9  36 SE8       30.33F WCI  26
CHEYENNE       FAIR      45  11  25 W16       30.27F
TORRINGTON     FAIR      35  23  61 N3        30.18S
PINE BLUFFS    FAIR      30  21  69 MISG      30.26S

$$



USA.gov is the U.S. government's official web portal to all federal, state and local government web resources and services.